[TLELIST] Archives

 

[list_settings.list_name] Current TLEs

March 23rd 2010 PST

HST 1 20580U 90037B 10080.47609835 .00000682 00000-0 39483-4 0 5381 2 20580 028.4687 092.4399 0003178 350.2776 009.7869 15.00926714891560 ISS (ZARYA) 1 25544U 98067A 10081.27639013 .00018368 00000-0 12836-3 0 8225 2 25544 051.6468 316.7886 0007554 075.8582 029.9352 15.74321225649783 CXO 1 25867U 99040B 10081.79166667 .00000185 00000-0 10000-3 0 4418 2 25867 066.7230 057.7195 8020760 275.2298 358.0130 00.37798666 6060 ____________________________________________________________________ These 2-Line ...Continue Reading

[list_settings.list_name] Current TLEs

March 22nd 2010 PST

HST 1 20580U 90037B 10077.15135467 .00000613 00000-0 34193-4 0 5373 2 20580 028.4686 114.1449 0003251 309.5084 050.5268 15.00922806891068 ISS (ZARYA) 1 25544U 98067A 10079.87160709 .00023720 00000-0 16467-3 0 8119 2 25544 051.6470 324.0027 0007706 072.4095 346.4824 15.74280810649567 CXO 1 25867U 99040B 10079.08333333 .00000218 00000-0 10000-3 0 4409 2 25867 066.7113 057.8359 8018390 275.2630 349.2250 00.37803205 6059 ____________________________________________________________________ These 2-Line ...Continue Reading

[list_settings.list_name] Current TLEs

March 20th 2010 PST

HST 1 20580U 90037B 10077.15135467 .00000613 00000-0 34193-4 0 5373 2 20580 028.4686 114.1449 0003251 309.5084 050.5268 15.00922806891068 ISS (ZARYA) 1 25544U 98067A 10078.29189975 .00024650 00000-0 17147-3 0 8029 2 25544 051.6481 332.1158 0007732 066.1178 034.1115 15.74207467649319 CXO 1 25867U 99040B 10079.08333333 .00000218 00000-0 10000-3 0 4409 2 25867 066.7113 057.8359 8018390 275.2630 349.2250 00.37803205 6059 ____________________________________________________________________ These 2-Line ...Continue Reading

[list_settings.list_name] Current TLEs

March 19th 2010 PST

HST 1 20580U 90037B 10077.15135467 .00000613 00000-0 34193-4 0 5373 2 20580 028.4686 114.1449 0003251 309.5084 050.5268 15.00922806891068 ISS (ZARYA) 1 25544U 98067A 10077.27423848 .00025225 00000-0 17573-3 0 7960 2 25544 051.6479 337.3425 0007732 062.3690 026.8345 15.74158152649158 CXO 1 25867U 99040B 10076.45833333 .00000243 00000-0 10000-3 0 4398 2 25867 066.6943 057.9815 8017560 275.2560 351.8592 00.37808501 6048 ____________________________________________________________________ These 2-Line ...Continue Reading

[list_settings.list_name] Current TLEs

March 18th 2010 PST

HST 1 20580U 90037B 10074.55805056 .00000594 00000-0 32686-4 0 5364 2 20580 028.4690 131.0720 0003256 281.9683 078.0554 15.00920402890675 ISS (ZARYA) 1 25544U 98067A 10076.32391363 .00025404 00000-0 17730-3 0 7909 2 25544 051.6480 342.2229 0007722 060.1379 040.0664 15.74110709649008 CXO 1 25867U 99040B 10076.45833333 .00000243 00000-0 10000-3 0 4398 2 25867 066.6943 057.9815 8017560 275.2560 351.8592 00.37808501 6048 ____________________________________________________________________ These 2-Line ...Continue Reading

[list_settings.list_name] Current TLEs

March 17th 2010 PST

HST 1 20580U 90037B 10074.55805056 .00000594 00000-0 32686-4 0 5364 2 20580 028.4690 131.0720 0003256 281.9683 078.0554 15.00920402890675 ISS (ZARYA) 1 25544U 98067A 10075.37239706 .00023932 00000-0 16770-3 0 7834 2 25544 051.6480 347.1085 0007750 056.9491 047.6409 15.74056069648851 CXO 1 25867U 99040B 10076.45833333 .00000243 00000-0 10000-3 0 4398 2 25867 066.6943 057.9815 8017560 275.2560 351.8592 00.37808501 6048 ____________________________________________________________________ These 2-Line ...Continue Reading

[list_settings.list_name] Current TLEs

March 16th 2010 PST

HST 1 20580U 90037B 10073.56062710 .00000570 00000-0 30868-4 0 5359 2 20580 028.4688 137.5808 0003299 271.7379 088.2944 15.00919352890528 ISS (ZARYA) 1 25544U 98067A 10074.35574426 .00022673 00000-0 15949-3 0 7762 2 25544 051.6483 352.3280 0007951 052.9150 046.9057 15.74001890648695 CXO 1 25867U 99040B 10073.83333333 .00000168 00000-0 10000-3 0 4387 2 25867 066.6785 058.1087 8014960 275.2390 354.5486 00.37808284 6037 ____________________________________________________________________ These 2-Line ...Continue Reading

[list_settings.list_name] Current TLEs

March 15th 2010 PST

HST 1 20580U 90037B 10070.63484211 .00000536 00000-0 28217-4 0 5344 2 20580 028.4686 156.6845 0003419 241.3784 118.6401 15.00916775890089 ISS (ZARYA) 1 25544U 98067A 10073.51070602 .00020951 00000-0 14804-3 0 7706 2 25544 051.6475 356.6674 0007746 050.5459 297.7627 15.73956026648551 CXO 1 25867U 99040B 10073.83333333 .00000168 00000-0 10000-3 0 4387 2 25867 066.6785 058.1087 8014960 275.2390 354.5486 00.37808284 6037 ____________________________________________________________________ These 2-Line ...Continue Reading

[list_settings.list_name] Current TLEs

March 14th 2010 PST

HST 1 20580U 90037B 10070.63484211 .00000536 00000-0 28217-4 0 5344 2 20580 028.4686 156.6845 0003419 241.3784 118.6401 15.00916775890089 ISS (ZARYA) 1 25544U 98067A 10072.38735538 .00018433 00000-0 13112-3 0 7619 2 25544 051.6479 002.4336 0007999 046.5061 052.4183 15.73899515648383 CXO 1 25867U 99040B 10068.58333333 -.00000183 +00000-0 +10000-3 0 04369 2 25867 066.6519 058.3027 8008682 275.2227 359.9148 00.37807070006015 ____________________________________________________________________ These 2-Line ...Continue Reading

[list_settings.list_name] Current TLEs

March 13th 2010 PST

HST 1 20580U 90037B 10070.63484211 .00000536 00000-0 28217-4 0 5344 2 20580 028.4686 156.6845 0003419 241.3784 118.6401 15.00916775890089 ISS (ZARYA) 1 25544U 98067A 10071.37045914 .00015052 00000-0 10816-3 0 7543 2 25544 051.6475 007.6538 0007783 042.0686 051.2387 15.73847817648229 CXO 1 25867U 99040B 10068.58333333 -.00000183 +00000-0 +10000-3 0 04369 2 25867 066.6519 058.3027 8008682 275.2227 359.9148 00.37807070006015 ____________________________________________________________________ These 2-Line ...Continue Reading
  • This mailing list is a public mailing list - anyone may join or leave, at any time.
  • This mailing list is announce-only.

International Space Station (ISS) / Hubble Space Telescope (HST) / Chandra X-Ray Observatory Orbital Data via EMAIL

Privacy Policy:

Private list